Location: LDNL
(36.4545°S, 141.6685°E)
Time: 22:35:29
(UTC+11:00)

ISS - Pass Details

Date: 16 December 2021
Orbit: 413 x 422 km, 51.6° (Epoch: 22 January)

Event Time Altitude Azimuth Distance (km) Brightness Sun altitude
Rises 04:02:48 0° 225° (SW) 2,381 0.2 -20.1°
Reaches altitude 10° 04:04:58 10° 219° (SW) 1,512 -0.8 -19.8°
Maximum altitude 04:08:17 48° 142° (SE) 558 -2.8 -19.4°
Drops below altitude 10° 04:11:33 10° 66° (ENE) 1,500 -0.8 -19.0°
Sets 04:13:41 0° 60° (ENE) 2,359 0.2 -18.7°
